Location: Moy Burn
(57.3833°N, 4.0667°W)
Time: 11:19:19
(UTC+00:00)

Cosmos 1544 - Pass Details

Date: 08 August 2020
Orbit: 472 x 491 km, 82.5° (Epoch: 21 September)

Event Time Altitude Azimuth Distance (km) Brightness Sun altitude
Exits shadow 23:54:48 30° 130° (SE) 907 4.0 -16.6°
Maximum altitude 23:55:50 36° 94° (E) 785 4.0 -16.6°
Drops below altitude 10° 23:59:15 10° 26° (NNE) 1,691 6.7 -16.7°
Sets 00:01:29 0° 18° (NNE) 2,581 8.0 -16.7°
